Location: Newark
(45.6439°N, 0.5436°E)
Time: 05:18:32
(UTC+00:00)

N. Korean satellite - Pass Details

Date: 01 December 2019
Orbit: 455 x 506 km, 97.2° (Epoch: 10 December)

Event Time Altitude Azimuth Distance (km) Brightness Sun altitude
Rises 05:42:23 0° 15° (NNE) 2,586 10.3 -16.1°
Reaches altitude 10° 05:44:30 10° 19° (NNE) 1,690 9.3 -15.7°
Maximum altitude 05:48:06 62° 100° (E) 551 7.1 -15.1°
Drops below altitude 10° 05:51:37 10° 182° (S) 1,646 9.4 -14.5°
Sets 05:53:39 0° 186° (S) 2,510 10.3 -14.2°
